Date,TemperatureHighF,TemperatureAvgF,TemperatureLowF,DewpointHighF,DewpointAvgF,DewpointLowF,HumidityHigh,HumidityAvg,HumidityLow,PressureMaxIn,PressureMinIn,WindSpeedMaxMPH,WindSpeedAvgMPH,GustSpeedMaxMPH,PrecipitationSumIn
2013-2-1,32.4,26.5,19.5,12.4,8.0,4.3,53,45,32,30.02,29.49,2,0,8,0.00
2013-2-2,27.6,22.3,13.6,10.5,5.7,1.7,67,49,34,30.19,30.00,2,0,5,0.00
2013-2-3,27.6,23.9,17.8,20.1,16.9,10.4,91,75,53,30.00,29.68,0,0,2,0.00
2013-2-4,30.0,22.7,16.4,16.9,8.2,1.3,84,56,32,29.86,29.66,2,0,7,0.00
2013-2-5,26.6,20.0,11.1,14.0,6.4,2.1,76,56,41,29.99,29.86,1,0,2,0.00
2013-2-6,38.2,27.4,20.8,25.5,16.7,1.0,90,66,40,30.27,29.88,1,0,5,0.01
2013-2-7,24.8,19.7,12.1,2.8,-2.8,-9.1,52,37,22,30.50,30.25,2,0,6,0.00
2013-2-8,21.6,17.7,15.1,15.3,12.4,2.8,91,80,44,30.47,29.67,3,0,6,0.00
2013-2-9,20.8,13.8,12.1,17.8,-9.0,-99.9,93,68,66,30.14,29.59,3,-152,8,0.00
2013-2-10,31.5,14.0,6.5,16.0,-12.9,-99.9,82,54,45,30.35,30.15,1,-89,8,0.24
2013-2-11,32.5,20.1,8.6,31.5,10.5,-99.9,97,83,75,30.31,29.56,0,-67,2,0.01
2013-2-12,41.6,24.8,30.9,34.8,-8.6,-99.9,98,60,64,29.78,29.52,2,-270,6,0.47
2013-2-13,41.5,7.5,31.5,28.8,-73.6,-99.9,78,19,50,29.80,29.67,3,-364,1,0.08
2013-2-14,30.6,5.8,25.6,22.2,-87.8,-99.9,83,8,83,29.93,29.65,0,-669,0,0.00
2013-2-15,-200.0,0.0,200.0,-99.9,-99.9,-99.9,0,0,100,29.90,29.88,0,0,0,0.00
2013-2-16,34.7,0.8,33.5,32.9,-98.1,-99.9,93,2,93,29.90,29.68,0,0,0,0.01
2013-2-17,21.8,7.3,14.8,15.6,-61.0,-99.9,87,33,44,29.68,29.30,5,1,6,0.00
2013-2-18,30.6,13.0,12.8,4.3,-33.8,-99.9,58,33,25,30.08,29.58,3,1,11,0.07
2013-2-19,21.1,16.4,18.6,7.3,-12.5,-99.9,59,46,46,30.10,30.04,0,-124,0,0.00
2013-2-23,-200.0,0.0,200.0,-99.9,-99.9,-99.9,0,0,100,29.96,29.88,0,-999,0,0.00
2013-2-24,33.1,15.2,29.8,32.6,-36.9,-99.9,98,47,96,29.87,29.69,0,-497,0,0.07
2013-2-25,36.3,13.4,30.6,34.4,-47.3,-99.9,98,41,80,30.19,29.88,1,-361,0,0.43
2013-2-26,41.1,19.1,30.1,35.3,-31.4,-99.9,98,44,69,30.31,30.15,1,-476,2,0.19
2013-2-27,-200.0,0.0,200.0,-99.9,-99.9,-99.9,0,0,100,30.15,30.07,0,-999,0,0.00
2013-2-28,-200.0,0.0,200.0,-99.9,-99.9,-99.9,0,0,100,29.57,29.47,0,0,0,0.00